SL-8 R/B (8459 NORAD) Tracking and Keplerian Element Data

This shows tracking and keplerian element data for the satellite.

Feedback or suggestion? Click here.




ElementValue
Catalog8459
NameSL-8 R/B
Epoch Orbit51873
Epoch Day12.50758244
Epoch Year2024
RAAN26.0601
Inclination74.0614
Eccentricity0.0017029
Argument of Perigee310.8156
Mean Anonmoly49.152
Mean Motion14.37318617
Decay Rate4.24E-06
L11 08459U 75112B 24012.50758244 .00000424 00000+0 15068-3 0 9998
L22 08459 74.0614 26.0601 0017029 310.8156 49.1520 14.37318617518734



Live tracking and technical data element details for SL-8 R/B (NORAD 8459). SL-8 R/B can be tracked NOW for your location showing map with azimuth and elevation plus other details from your city location.







IsCatalogInMostPopularTable: catalog: 8459, numindb: 311
Update: records affected: 1



GetName: 8459 SL-8 R/B

Hit Count: updated at: Mon, 15 Apr 2024 00:09:03 GMT